Location: Cowley
(49.5667°N, 114.0667°W)
Time: 09:54:51
(UTC+00:00)

Envisat - Pass Details

Date: 06 December 2021
Orbit: 764 x 766 km, 98.2° (Epoch: 23 January)

Event Time Altitude Azimuth Distance (km) Brightness Sun altitude
Rises 14:16:15 0° 3° (N) 3,247 6.0 -9.5°
Reaches altitude 10° 14:19:06 10° 348° (NNW) 2,315 5.1 -9.1°
Maximum altitude 14:22:43 20° 302° (WNW) 1,720 4.2 -8.6°
Drops below altitude 10° 14:26:20 10° 257° (WSW) 2,304 5.0 -8.0°
Sets 14:29:10 0° 240° (WSW) 3,226 5.9 -7.6°
